EW4858 Weather Reports


Display with metric or nautical units.
time (UTC)temp
F
wind
direction
speed
MPH
gust
MPH
rain 1hr
in
rain 24hr
in
rain mn
in
humidity
%
barometer
mb
20260902161543 68 148 0.0 0.0 0.00 0.00 0.00 78 1012.3
20260902160048 67 151 0.0 5.0 0.00 0.00 0.00 79 1012.4
20260902154555 67 42 0.0 3.0 0.00 0.00 0.00 78 1012.4
20260902153040 66 260 0.0 3.0 0.00 0.00 0.00 78 1012.3
20260902151540 65 260 0.0 0.0 0.00 0.00 0.00 78 1012.2
20260902150041 65 260 0.0 2.0 0.00 0.00 0.00 74 1012.3
20260902144537 64 260 0.0 5.0 0.00 0.00 0.00 76 1012.3
20260902143037 63 262 0.0 0.0 0.00 0.00 0.00 80 1012.2
20260902141534 61 262 0.0 0.0 0.00 0.00 0.00 82 1012.3
20260902140031 60 262 0.0 0.0 0.00 0.00 0.00 82 1012.2
20260902134623 59 262 0.0 0.0 0.00 0.00 0.00 82 1012.0
20260902133017 59 262 0.0 3.0 0.00 0.00 0.00 82 1011.7
20260902131516 59 262 1.0 2.0 0.00 0.00 0.00 82 1011.4
20260902130014 59 262 1.0 4.0 0.00 0.00 0.00 82 1011.3
20260902124512 60 262 1.0 5.0 0.00 0.00 0.00 81 1011.2
20260902123010 60 257 2.0 5.0 0.00 0.00 0.00 82 1011.2
20260902121510 60 250 0.0 4.0 0.00 0.00 0.00 82 1011.2
20260902120010 60 250 0.0 3.0 0.00 0.00 0.00 81 1011.2
20260902114504 61 250 3.0 5.0 0.00 0.00 0.00 81 1011.2
20260902113002 62 263 3.0 6.0 0.00 0.00 0.00 81 1011.3
20260902111500 63 263 2.0 6.0 0.00 0.00 0.00 80 1011.3
20260902110059 65 256 4.0 7.0 0.00 0.00 0.00 81 1011.2
20260902104556 66 204 1.0 5.0 0.00 0.00 0.00 85 1011.4
20260902103106 65 203 0.0 0.0 0.00 0.00 0.00 84 1011.7
20260902101554 65 202 0.0 0.0 0.00 0.00 0.00 82 1011.7
20260902100119 64 196 2.0 4.0 0.00 0.00 0.00 83 1011.8
20260902094613 64 163 0.0 3.0 0.00 0.00 0.00 84 1011.9
20260902093109 64 160 0.0 0.0 0.00 0.00 0.00 84 1011.8
20260902091553 63 143 0.0 0.0 0.00 0.00 0.00 84 1011.8
20260902090051 64 138 0.0 2.0 0.00 0.00 0.00 83 1011.9
20260902084548 64 138 0.0 0.0 0.00 0.00 0.00 83 1012.0
20260902083047 64 138 0.0 0.0 0.00 0.00 0.00 84 1012.0
20260902081548 65 126 0.0 0.0 0.00 0.00 0.00 84 1012.0
20260902080046 65 123 0.0 0.0 0.00 0.00 0.00 85 1012.0
20260902074543 65 121 0.0 0.0 0.00 0.00 0.00 84 1012.0
20260902073048 65 121 0.0 0.0 0.00 0.00 0.00 84 1012.0
20260902071545 67 121 0.0 0.0 0.00 0.00 0.00 84 1011.9
20260902070036 67 121 0.0 2.0 0.00 0.00 0.00 85 1011.7
20260902064540 67 107 0.0 0.0 0.00 0.00 0.00 85 1011.7
20260902063034 67 107 0.0 0.0 0.00 0.00 0.00 84 1011.7
20260902061533 68 107 0.0 0.0 0.00 0.00 0.00 83 1011.6
20260902060036 68 92 0.0 0.0 0.00 0.00 0.00 83 1011.4
20260902054538 68 117 0.0 4.0 0.00 0.00 0.00 82 1011.3
20260902053032 68 105 2.0 6.0 0.00 0.00 0.00 81 1011.4
20260902051529 68 97 1.0 5.0 0.00 0.00 0.00 80 1011.4
20260902050039 69 91 2.0 5.0 0.00 0.00 0.00 79 1011.2
20260902044528 69 76 2.0 3.0 0.00 0.00 0.00 78 1011.2
20260902043027 69 85 2.0 5.0 0.00 0.00 0.00 76 1011.1
20260902041527 70 111 1.0 6.0 0.00 0.00 0.00 76 1010.8
20260902040028 70 105 2.0 6.0 0.00 0.00 0.00 75 1010.6
20260902034527 70 86 1.0 5.0 0.00 0.00 0.00 74 1010.4
20260902033026 71 90 0.0 5.0 0.00 0.00 0.00 73 1010.2
20260902031526 72 112 2.0 5.0 0.00 0.00 0.00 71 1010.0
20260902030025 73 90 3.0 7.0 0.00 0.00 0.00 68 1009.8
20260902024534 74 92 4.0 8.0 0.00 0.00 0.00 65 1009.7
20260902023027 75 85 2.0 8.0 0.00 0.00 0.00 62 1009.6
20260902021540 76 71 1.0 8.0 0.00 0.00 0.00 59 1009.3
20260902020024 77 92 4.0 9.0 0.00 0.00 0.00 56 1009.3
20260902014532 78 118 4.0 9.0 0.00 0.00 0.00 55 1009.4
20260902013022 79 90 4.0 9.0 0.00 0.00 0.00 54 1009.3
20260902011522 79 107 5.0 10.0 0.00 0.00 0.00 54 1009.3
20260902010026 80 94 4.0 10.0 0.00 0.00 0.00 51 1009.3
20260902004521 82 82 4.0 8.0 0.00 0.00 0.00 48 1009.3
20260902003021 82 23 7.0 9.0 0.00 0.00 0.00 46 1009.3
20260902001521 83 50 4.0 9.0 0.00 0.00 0.00 47 1009.3
20260902000020 83 66 2.0 11.0 0.00 0.00 0.00 44 1009.3
20260901234519 84 22 5.0 11.0 0.00 0.00 0.00 44 1009.4
20260901233037 84 59 6.0 12.0 0.00 0.00 0.00 43 1009.4
20260901231518 85 15 4.0 10.0 0.00 0.00 0.00 43 1009.3
20260901230030 85 49 6.0 11.0 0.00 0.00 0.00 44 1009.4
20260901224516 86 20 8.0 16.0 0.00 0.00 0.00 44 1009.4
20260901223016 86 45 6.0 15.0 0.00 0.00 0.00 44 1009.4
20260901221515 86 22 7.0 12.0 0.00 0.00 0.00 45 1009.4
20260901220014 87 53 7.0 14.0 0.00 0.00 0.00 45 1009.5
20260901214526 86 41 7.0 14.0 0.00 0.00 0.00 46 1009.6
20260901213014 87 57 6.0 14.0 0.00 0.00 0.00 45 1009.7
20260901211512 87 57 7.0 11.0 0.00 0.00 0.00 45 1009.7
20260901210012 87 10 7.0 13.0 0.00 0.00 0.00 47 1009.8
20260901204513 87 61 7.0 12.0 0.00 0.00 0.00 44 1009.8
20260901203010 87 61 1.0 9.0 0.00 0.00 0.00 41 1009.8
20260901201507 87 15 1.0 8.0 0.00 0.00 0.00 36 1009.8
20260901200007 87 51 3.0 9.0 0.00 0.00 0.00 36 1010.1
20260901194502 86 99 5.0 9.0 0.00 0.00 0.00 38 1010.2
20260901193104 86 25 3.0 9.0 0.00 0.00 0.00 37 1010.4
20260901191612 84 48 2.0 7.0 0.00 0.00 0.00 42 1010.6
20260901190056 84 81 2.0 7.0 0.00 0.00 0.00 47 1010.6
20260901184552 82 90 2.0 7.0 0.00 0.00 0.00 52 1010.8
20260901183057 82 129 1.0 4.0 0.00 0.00 0.00 56 1011.0
20260901181546 80 107 0.0 4.0 0.00 0.00 0.00 57 1011.1
20260901180043 79 62 1.0 5.0 0.00 0.00 0.00 59 1011.1
20260901174540 78 100 1.0 6.0 0.00 0.00 0.00 63 1011.3
20260901173042 76 21 0.0 5.0 0.00 0.00 0.00 67 1011.4
20260901171539 75 35 0.0 5.0 0.00 0.00 0.00 69 1011.4
20260901170030 74 80 3.0 7.0 0.00 0.00 0.00 71 1011.3
20260901164529 73 40 0.0 5.0 0.00 0.00 0.00 73 1011.3
20260901163024 72 101 3.0 6.0 0.00 0.00 0.00 76 1011.2